Location: Remedello Sotto
(45.2500°N, 10.3667°E)
Time: 05:23:40
(UTC+00:00)

COSMOS 2428 - Pass Details

Date: 03 February 2023
Orbit: 843 x 858 km, 70.9° (Epoch: 29 March)

Event Time Altitude Azimuth Distance (km) Brightness Sun altitude
Rises 18:26:11 0° 180° (S) 3,389 5.9 -21.0°
Reaches altitude 10° 18:28:47 10° 172° (S) 2,457 5.0 -21.4°
Enters shadow 18:32:22 32° 140° (SE) 1,426 3.5 -22.1°
